Regional Weather Roundup
Issued by NWS

Home | Current Version | Previous Version | Text Only | Print | Product List | Glossary Off
Versions: 1 2 3 4 5 6 7 8 9 10 11 12 13 14 15 16 17 18 19 20 21 22 23 24 25 26 27 28 29 30 31 32 33 34 35 36 37 38 39 40 41 42 43 44 45 46 47 48 49 50

838
ASUS44 KJAN 201510
RWRMS

MISSISSIPPI HOURLY WEATHER ROUNDUP
NATIONAL WEATHER SERVICE JACKSON MS
1000 AM CDT SUN APR 20 2014

NOTE: "FAIR: INDICATES FEW OR NO CLOUDS BELOW 12,000 FEET WITH NO
SIGNIFICANT WEATHER AND/OR OBSTRUCTIONS TO VISIBILITY.

MSZ001>002-007>008-010>013-018>021-025>028-034>036-201600-
NORTHWEST MISSISSIPPI

CITY           SKY/WX    TMP DP  RH WIND       PRES   REMARKS
CLARKSDALE       N/A     68  50  52 SE9       30.23S
CLEVELAND      FAIR      69  53  57 SE7       30.22R
GREENWOOD      SUNNY     69  54  58 SE8       30.23R
GREENVILLE     SUNNY     71  51  49 SE7       30.21R
GRENADA        FAIR      68  54  60 S9        30.25S
OLIVE BRANCH   PTSUNNY   68  48  49 S12       30.23S
OXFORD         FAIR      66  50  55 S7        30.26S
TUNICA         SUNNY     68  50  52 S10       30.23S
$$

MSZ003>006-009-014>017-022>024-029>033-037>039-201600-
NORTHEAST MISSISSIPPI

CITY           SKY/WX    TMP DP  RH WIND       PRES   REMARKS
BELMONT        FAIR      65  47  52 S6        30.26R
COLUMBUS AFB   SUNNY     66  47  50 SE9       30.27R
CORINTH        FAIR      66  46  48 S8        30.25S
GOLDN TRIANGLE SUNNY     64  46  52 SE9       30.29R
STARKVILLE     FAIR      64  48  55 SE10      30.26R
TUPELO         SUNNY     66  45  46 S14       30.26R
$$

MSZ040-058-201600-
CENTRAL MISSISSIPPI

CITY           SKY/WX    TMP DP  RH WIND       PRES   REMARKS
JACKSON INTL   SUNNY     68  54  60 E7        30.23S
JACKSON HAWKNS SUNNY     68  54  60 SE9       30.23R
MERIDIAN KEY   SUNNY     64  50  60 NE7       30.24R
MERIDIAN NAS   SUNNY     63  49  60 E7        30.26R
RAYMOND        FAIR      68  64  88 SE6       30.23R
VICKSBURG      SUNNY     70  56  61 E6        30.21R
$$

MSZ059>079-201600-
SOUTH MISSISSIPPI

CITY           SKY/WX    TMP DP  RH WIND       PRES   REMARKS
BROOKHAVEN     FAIR      66  57  72 E7        30.23R
COLUMBIA       FAIR      68  57  68 MISG      30.21S
HATTIESBURG    SUNNY     67  54  63 E6        30.23R
MCCOMB         SUNNY     69  58  67 S8        30.21R
NATCHEZ        SUNNY     72  54  53 E5        30.20R
PINE BELT      SUNNY     66  54  63 E6        30.23R
$$

MSZ080>082-201600-
COASTAL MISSISSIPPI

CITY           SKY/WX    TMP DP  RH WIND       PRES   REMARKS
BAY ST LOUIS   SUNNY     68  54  60 NE7       30.20R
BILOXI         SUNNY     68  55  62 N7        30.19R
PASCAGOULA     SUNNY     67  54  63 VRB7      30.19S
GULFPORT       SUNNY     72  53  51 NE8       30.19R
$$



USA.gov is the U.S. government's official web portal to all federal, state and local government web resources and services.